TDRS 13 (42915 NORAD) Tracking and Keplerian Element Data

This shows tracking and keplerian element data for the satellite.

Feedback or suggestion? Click here.




ElementValue
Catalog42915
NameTDRS 13
Epoch Orbit652
Epoch Day146.33781101
Epoch Year2019
RAAN330.5236
Inclination6.1574
Eccentricity0.0016362
Argument of Perigee86.5273
Mean Anonmoly296.7073
Mean Motion1.0027278
Decay Rate-1.09E-06
L11 42915U 17047A 19146.33781101 -.00000109 00000-0 00000+0 0 9995
L22 42915 6.1574 330.5236 0016362 86.5273 296.7073 1.00272780 6521

Live tracking and technical data element details for TDRS 13 (NORAD 42915). TDRS 13 can be tracked NOW for your location showing map with azimuth and elevation plus other details from your city location.

Track the satellite on the map from your city or location and see movement details for azimuth, elevation, latitude, longitude, range, height, and movement on the map or in text.







IsCatalogInMostPopularTable: catalog: 42915, numindb: 244
Update: records affected: 1



GetName: 42915 TDRS 13

Hit Count: updated at: Mon, 27 May 2019 03:07:56 GMT